Wind_Speed
43 41 39 38 35 30 22 19 21 17 22 26 25 25 20 17 19 25 27 14 11 10 8 4 4 6 7 9 11 13 11 10 9 12 13 12 12 15 16 18 19 20 18 17 17 16 16 17 17
42 42 42 39 36 30 26 24 19 24 23 26 22 24 18 19 24 30 35 19 17 11 7 8 8 9 12 10 12 12 12 12 9 9 12 14 15 16 17 18 19 19 19 18 16 17 17 19 18
36 38 43 44 38 31 27 26 32 27 22 16 20 15 21 26 26 31 36 33 17 8 9 11 10 13 12 14 13 11 9 10 9 12 15 17 17 17 17 18 20 21 19 20 18 16 16 18 18
29 32 42 43 36 34 30 33 34 33 31 24 21 17 25 29 33 35 35 32 28 15 14 15 15 14 16 15 12 7 5 6 11 15 19 21 21 20 19 17 19 19 20 20 19 19 19 19 19
41 32 37 40 35 33 32 33 37 37 32 25 21 20 27 32 37 39 37 35 25 23 20 18 18 19 18 15 12 9 5 9 13 16 20 23 23 22 22 19 20 20 20 21 20 18 19 20 21
43 50 43 32 33 35 32 39 46 36 38 27 27 26 34 37 39 40 37 31 26 23 22 22 23 23 23 19 14 9 12 13 14 18 22 23 22 23 24 23 23 22 22 22 21 19 18 19 19
54 43 50 45 33 38 29 42 44 37 38 34 36 29 36 41 40 41 34 33 32 27 29 27 27 26 26 23 17 15 13 16 17 18 21 22 22 26 27 28 28 25 25 24 23 21 21 21 19
37 50 51 49 45 33 31 40 42 41 36 32 34 29 29 35 31 32 36 36 40 36 30 31 31 30 27 24 21 19 15 16 18 19 20 24 24 26 28 30 29 27 26 28 26 22 22 22 20
48 46 37 42 47 44 32 41 45 47 43 36 36 32 38 39 36 30 36 37 36 35 34 33 31 34 29 26 23 19 18 18 18 18 20 24 26 28 30 30 30 29 28 28 27 25 24 24 22
47 50 41 44 48 48 44 41 49 52 50 41 39 42 38 33 26 28 35 36 33 37 42 37 33 32 31 29 22 19 19 18 19 20 21 25 25 29 32 32 31 29 28 28 28 27 26 26 25
43 45 45 49 50 49 50 52 48 58 55 47 44 41 41 38 33 30 35 40 37 43 51 42 37 34 33 26 17 18 21 20 20 22 24 26 26 27 31 34 32 30 29 27 28 29 27 29 27
42 40 41 41 52 55 51 55 52 50 56 56 49 48 47 44 33 38 45 45 38 32 37 46 40 39 32 30 12 19 23 25 22 25 26 27 27 27 30 34 33 32 30 28 29 27 27 29 29
43 44 46 44 45 50 60 54 54 60 49 61 56 50 51 56 40 46 50 52 46 49 46 38 35 39 36 36 16 19 25 29 26 27 27 29 29 27 29 34 35 34 32 29 30 28 29 30 29
42 43 45 45 43 44 50 57 61 55 57 58 60 65 65 64 68 63 59 56 54 52 43 37 45 46 40 30 20 27 29 30 31 30 30 31 31 29 30 34 38 37 34 31 31 30 30 30 29
42 44 45 45 45 47 49 51 51 54 54 61 59 58 60 56 63 64 59 56 50 51 46 40 42 43 44 46 29 32 34 35 33 31 31 32 34 30 31 35 39 40 38 35 33 32 30 30 30
43 45 46 45 48 47 48 52 44 48 49 64 61 57 61 59 54 60 60 60 58 50 53 45 45 46 42 36 31 37 40 41 35 32 33 32 35 34 33 37 39 42 41 39 36 32 31 30 30
44 45 47 46 46 49 52 52 46 49 52 52 58 68 58 65 61 61 58 59 59 57 57 56 54 48 43 46 52 47 44 42 40 32 33 35 38 37 36 38 38 43 43 42 38 32 31 31 29
44 47 48 51 51 53 53 53 54 54 58 58 56 58 63 67 64 63 63 63 59 58 57 57 55 47 48 55 54 47 46 49 45 34 36 40 41 41 38 38 38 46 44 42 37 33 31 31 28
46 48 50 52 55 58 58 57 55 55 57 59 58 58 62 62 66 67 64 57 62 63 61 62 59 57 58 48 52 53 52 51 46 44 42 47 48 46 43 41 40 45 46 41 36 32 32 30 28
45 48 51 52 55 59 60 59 56 58 56 56 58 59 60 60 59 61 71 63 62 67 68 68 63 62 61 65 66 56 54 49 45 45 44 50 52 49 45 46 43 42 45 38 33 33 32 28 28
45 48 51 55 55 57 61 60 56 55 57 57 57 57 58 59 59 58 69 73 67 70 70 68 69 66 65 64 61 54 48 46 44 43 50 53 50 44 45 44 40 42 40 34 33 35 32 28 28
47 48 52 54 56 59 58 64 61 58 60 60 59 59 59 57 57 57 60 69 72 73 68 66 66 65 65 59 56 49 45 50 48 54 50 46 42 42 40 40 37 40 36 31 35 36 30 29 30
39 47 51 54 56 61 59 65 59 61 63 61 62 62 60 59 58 58 58 59 66 69 65 69 70 60 52 44 34 32 37 41 39 42 43 39 41 33 34 34 38 35 31 34 35 33 29 28 28
35 39 44 52 57 60 59 58 62 59 59 61 62 65 65 62 62 61 59 55 55 57 58 58 58 52 49 43 37 34 34 34 38 37 38 39 34 31 33 33 35 30 32 34 34 28 26 28 28
39 35 40 42 42 49 53 58 60 59 59 64 65 65 67 65 63 63 60 58 55 56 55 55 53 50 47 43 40 36 33 35 36 35 35 34 30 34 32 34 29 29 32 33 29 26 26 28 27
31 25 25 27 27 26 22 41 49 48 53 60 63 64 62 65 64 63 61 58 56 53 53 50 49 47 41 39 37 36 34 35 36 33 33 32 32 32 32 29 28 29 32 28 26 24 26 26 27
29 24 17 26 26 25 20 18 17 29 31 43 54 63 63 62 60 63 62 59 55 51 48 45 44 43 42 40 35 34 34 35 35 36 35 32 31 31 30 28 28 29 27 26 24 24 25 24 24
30 30 31 27 28 31 30 28 27 31 32 35 43 53 61 56 60 58 60 60 57 52 46 44 40 39 39 39 37 38 37 37 37 34 31 29 31 29 26 27 29 27 25 23 21 23 23 23 23
26 32 32 35 39 33 37 33 34 30 33 36 40 46 53 55 54 57 58 58 56 54 49 40 38 39 37 42 39 39 39 37 33 29 28 28 29 26 27 29 28 24 22 21 23 22 21 22 22
27 28 33 36 36 41 39 37 35 26 24 28 34 42 48 49 53 53 57 58 55 50 43 47 46 45 42 39 40 39 35 31 29 27 27 27 26 26 28 27 23 20 20 20 21 22 22 23 22
Wind_Direction
221 223 224 221 220 217 205 193 196 183 171 169 182 188 204 247 255 255 264 256 230 218 233 312 308 320 318 317 304 310 319 309 321 325 327 324 326 332 336 342 342 346 347 350 345 337 331 330 328
224 225 225 222 218 211 204 199 191 181 188 193 194 199 221 244 255 245 251 268 231 222 243 260 288 308 311 301 292 291 312 312 323 325 335 334 333 336 336 341 339 342 342 350 348 338 336 334 334
234 227 228 223 216 205 201 196 179 188 193 199 197 225 235 237 242 243 253 258 262 241 242 256 283 296 305 309 292 284 291 298 314 338 347 341 339 335 340 339 343 341 348 349 348 341 338 340 332
239 237 231 227 217 203 200 195 188 194 199 198 192 214 239 247 242 255 260 259 254 255 245 264 278 288 301 314 303 279 287 314 340 338 341 340 340 338 339 342 342 342 347 349 347 342 340 344 332
234 235 237 231 219 205 202 198 190 199 204 199 202 231 253 248 241 247 254 256 248 249 247 254 270 279 285 301 325 287 304 345 343 343 341 344 345 341 344 344 342 342 347 348 347 342 339 340 335
230 238 236 234 222 211 200 186 188 195 199 192 200 226 240 242 231 242 249 245 243 230 245 254 263 270 274 279 297 294 280 298 328 341 346 346 351 351 353 348 343 347 350 345 347 340 335 335 336
223 227 231 233 227 216 212 198 193 195 198 189 209 218 236 239 244 241 234 228 232 238 247 251 257 265 269 273 285 292 290 294 316 333 343 346 358 357 356 354 348 346 345 343 348 340 329 331 334
226 233 233 231 228 214 214 205 202 201 193 196 203 205 231 233 225 235 232 235 231 234 243 249 254 261 266 272 278 283 291 302 315 326 336 343 346 354 355 352 345 342 341 338 340 335 323 325 326
237 239 239 237 235 224 223 206 204 206 197 193 210 211 225 229 219 224 226 231 237 241 241 246 252 260 262 267 279 284 294 299 312 324 331 336 342 346 348 348 342 334 332 333 334 330 321 319 324
238 241 245 238 235 235 224 216 210 214 204 199 210 211 221 229 235 230 236 238 238 240 243 240 243 250 255 264 281 290 305 305 316 317 325 330 339 343 344 343 339 331 324 327 328 325 316 317 322
238 242 244 241 237 231 226 211 218 217 217 205 210 217 225 234 227 240 242 245 251 256 249 242 232 234 249 260 264 290 302 316 321 314 318 323 334 338 340 338 332 329 321 320 321 318 316 316 318
238 242 242 239 233 230 226 222 219 221 220 221 219 223 226 227 236 240 240 248 253 230 246 238 230 237 237 254 268 293 298 305 318 317 315 318 327 333 337 336 330 327 320 313 311 315 312 311 314
241 239 242 240 235 236 234 227 221 220 222 228 227 230 237 241 240 243 242 249 246 236 260 247 248 244 231 198 221 286 294 295 304 315 312 313 317 327 332 335 330 322 317 308 306 312 309 307 309
245 244 243 245 244 243 240 234 230 221 223 226 227 235 237 239 239 237 243 251 251 246 248 247 254 277 233 243 284 289 288 291 297 306 308 305 307 317 327 333 331 320 316 307 303 306 305 303 306
245 243 240 241 245 246 248 238 239 233 221 225 224 223 225 226 241 246 244 246 250 247 254 263 256 256 251 273 262 273 281 287 298 297 297 299 297 308 313 322 328 319 315 309 299 302 302 300 302
247 246 243 241 243 243 244 233 229 234 237 226 228 219 222 225 229 242 251 250 248 246 247 247 251 259 265 266 258 265 273 282 295 289 289 289 293 301 308 314 319 316 311 308 300 297 298 297 297
247 245 246 243 245 245 245 236 227 230 234 231 233 232 220 225 225 234 239 249 253 253 253 249 258 262 266 265 268 262 267 283 286 284 283 285 289 296 303 305 312 313 308 307 305 295 292 292 289
247 248 246 245 243 245 246 241 235 229 231 236 226 227 233 222 227 231 236 237 241 249 253 252 253 261 266 265 260 260 274 285 283 287 288 285 288 293 296 300 309 310 304 303 302 291 289 290 286
254 250 247 247 247 246 248 245 241 239 236 235 236 233 232 228 220 224 225 234 236 238 246 253 256 254 253 257 259 271 279 283 287 290 289 288 290 292 295 300 305 303 299 302 296 289 287 287 285
261 259 256 251 248 249 247 245 244 243 242 240 239 237 237 241 233 226 223 227 235 239 240 244 248 250 251 254 262 272 273 282 282 282 280 285 289 294 292 295 298 298 296 297 289 287 288 286 287
266 262 258 255 251 251 251 247 244 242 245 243 242 243 242 240 239 234 224 225 233 242 247 249 249 251 252 255 259 265 267 270 274 272 275 277 286 290 288 291 292 291 294 291 286 286 287 286 291
268 264 262 259 257 252 249 250 243 243 243 243 241 240 241 244 244 239 229 226 230 235 238 247 252 257 263 266 268 271 267 265 259 261 270 279 285 285 286 284 287 286 291 287 283 286 285 288 292
273 263 259 258 258 259 254 256 245 242 242 242 245 243 242 240 240 240 237 233 228 236 241 242 249 257 260 262 260 260 259 262 265 265 272 281 284 282 277 281 279 284 284 282 284 286 285 291 291
299 281 263 256 255 253 254 256 246 247 245 243 242 241 240 239 239 238 238 235 230 235 238 243 248 255 257 256 254 252 254 258 259 263 269 275 280 275 275 275 276 282 283 282 283 284 287 286 286
311 293 278 261 259 268 258 255 251 250 247 244 241 240 240 238 240 243 239 236 232 228 230 231 237 241 246 250 251 248 247 253 257 263 267 272 274 273 275 275 278 279 278 279 282 283 282 284 285
312 297 291 282 275 260 258 254 251 254 254 250 248 242 239 240 240 240 242 241 239 235 234 236 242 246 248 250 252 250 247 249 254 259 267 272 268 271 274 275 277 276 277 279 278 277 279 281 288
297 283 270 261 260 265 258 257 223 233 256 247 246 244 239 237 236 239 240 242 240 239 237 233 236 244 245 247 247 247 252 251 255 262 263 263 267 269 270 274 276 275 275 277 275 274 274 278 285
287 289 262 263 274 277 258 250 251 253 270 261 245 245 242 236 234 234 238 238 238 237 234 237 234 237 242 243 247 250 254 259 259 257 255 257 263 266 270 271 273 272 274 271 273 270 274 280 280
279 280 277 269 264 269 272 266 268 261 271 264 253 245 242 236 235 231 232 234 234 234 231 227 231 233 233 234 239 247 251 254 253 249 252 254 257 261 267 268 266 267 267 271 272 276 277 279 278
278 271 269 273 271 267 268 261 271 279 283 277 258 250 239 228 222 221 225 232 232 230 227 222 220 224 228 228 234 241 247 250 248 247 251 253 255 258 262 260 259 263 270 275 273 269 270 275 276
Height
5853 5856 5861 5864 5872 5877 5882 5888 5887 5891 5891 5890 5889 5889 5891 5891 5895 5900 5899 5902 5904 5906 5906 5905 5906 5905 5905 5904 5905 5905 5903 5902 5900 5899 5898 5898 5896 5894 5892 5889 5887 5884 5882 5879 5877 5874 5872 5871 5867
5846 5851 5855 5860 5866 5873 5880 5882 5888 5884 5882 5883 5884 5883 5888 5892 5895 5897 5896 5901 5903 5904 5904 5903 5904 5904 5904 5904 5904 5903 5902 5902 5899 5898 5897 5895 5893 5891 5889 5887 5884 5882 5880 5877 5874 5871 5868 5866 5862
5842 5844 5848 5852 5860 5870 5875 5878 5878 5879 5879 5879 5881 5880 5885 5890 5895 5896 5896 5899 5903 5901 5902 5901 5902 5903 5903 5903 5903 5902 5900 5899 5898 5897 5894 5893 5891 5889 5887 5884 5882 5881 5877 5875 5873 5870 5867 5863 5860
5836 5839 5841 5846 5857 5864 5868 5869 5872 5872 5872 5874 5877 5875 5883 5888 5893 5893 5894 5896 5899 5899 5899 5899 5900 5901 5903 5903 5902 5900 5898 5897 5896 5895 5892 5891 5889 5887 5885 5882 5879 5877 5874 5872 5870 5866 5863 5860 5857
5831 5833 5835 5842 5853 5859 5862 5864 5867 5870 5869 5873 5877 5875 5878 5883 5887 5888 5890 5892 5894 5896 5896 5896 5897 5898 5900 5901 5901 5900 5898 5896 5895 5894 5891 5889 5886 5884 5881 5879 5877 5875 5872 5869 5867 5864 5860 5857 5854
5825 5826 5830 5837 5847 5852 5855 5856 5857 5858 5860 5865 5867 5866 5868 5872 5880 5882 5885 5888 5889 5889 5891 5892 5894 5895 5897 5898 5899 5898 5897 5895 5893 5892 5890 5887 5884 5881 5878 5877 5875 5872 5870 5867 5864 5861 5858 5855 5852
5818 5818 5824 5831 5840 5845 5852 5851 5850 5849 5853 5858 5860 5859 5861 5864 5872 5873 5877 5880 5883 5885 5886 5888 5889 5892 5893 5895 5896 5895 5894 5892 5891 5890 5888 5885 5881 5878 5875 5873 5871 5869 5866 5863 5860 5858 5855 5853 5850
5810 5812 5818 5824 5834 5840 5842 5846 5848 5847 5846 5852 5852 5855 5859 5858 5863 5865 5869 5873 5876 5878 5881 5884 5886 5888 5890 5891 5891 5892 5891 5890 5888 5887 5885 5883 5880 5876 5873 5870 5868 5866 5863 5860 5857 5855 5852 5850 5848
5801 5804 5811 5819 5825 5834 5833 5838 5841 5840 5840 5845 5845 5850 5852 5853 5855 5859 5863 5865 5869 5873 5874 5877 5881 5883 5886 5887 5888 5888 5887 5886 5885 5883 5880 5879 5877 5874 5871 5868 5866 5863 5860 5857 5854 5852 5849 5847 5845
5793 5796 5803 5811 5815 5818 5823 5831 5831 5834 5837 5838 5839 5841 5847 5849 5848 5850 5857 5862 5864 5866 5868 5871 5874 5878 5881 5883 5885 5885 5884 5882 5880 5879 5877 5876 5874 5872 5868 5865 5863 5860 5857 5854 5850 5848 5846 5842 5840
5785 5789 5796 5799 5804 5805 5810 5820 5825 5828 5833 5834 5833 5833 5834 5839 5841 5845 5849 5852 5859 5859 5865 5865 5868 5870 5875 5879 5881 5881 5881 5879 5877 5876 5874 5872 5871 5869 5866 5863 5860 5857 5854 5851 5847 5844 5841 5838 5836
5776 5780 5783 5788 5790 5795 5802 5807 5815 5820 5831 5833 5829 5831 5831 5832 5836 5838 5839 5844 5853 5852 5858 5857 5860 5864 5868 5873 5875 5876 5875 5875 5874 5873 5870 5869 5867 5866 5863 5860 5857 5853 5849 5847 5843 5840 5838 5834 5831
5767 5772 5771 5775 5780 5784 5789 5795 5802 5807 5820 5823 5825 5826 5827 5828 5829 5831 5833 5839 5846 5851 5852 5852 5852 5857 5858 5854 5863 5870 5869 5870 5871 5869 5866 5865 5864 5862 5859 5857 5853 5849 5846 5842 5839 5835 5833 5830 5827
5760 5763 5766 5770 5775 5776 5776 5784 5786 5801 5807 5811 5817 5818 5821 5819 5822 5826 5829 5832 5838 5840 5846 5844 5846 5849 5850 5855 5851 5859 5863 5865 5865 5863 5861 5860 5860 5859 5855 5852 5849 5845 5841 5837 5833 5830 5828 5825 5822
5749 5752 5757 5761 5762 5762 5763 5770 5779 5799 5795 5796 5804 5810 5810 5813 5811 5815 5823 5827 5830 5831 5830 5835 5838 5843 5846 5845 5848 5853 5857 5859 5860 5858 5856 5854 5854 5854 5850 5847 5844 5840 5836 5832 5828 5826 5823 5820 5817
5740 5743 5747 5751 5748 5749 5748 5759 5775 5780 5780 5784 5790 5799 5802 5806 5807 5805 5808 5814 5822 5826 5824 5828 5831 5831 5834 5838 5843 5848 5850 5852 5854 5852 5851 5849 5848 5847 5845 5843 5839 5834 5831 5826 5823 5820 5817 5814 5811
5729 5733 5735 5737 5735 5733 5733 5752 5765 5763 5762 5769 5779 5785 5793 5794 5796 5800 5803 5802 5808 5815 5816 5818 5818 5822 5822 5828 5834 5841 5844 5844 5847 5846 5845 5843 5841 5839 5839 5837 5833 5828 5824 5821 5817 5814 5811 5809 5805
5718 5720 5723 5723 5723 5720 5728 5740 5746 5749 5747 5752 5759 5764 5772 5784 5787 5793 5794 5798 5798 5800 5806 5812 5814 5815 5819 5822 5828 5832 5833 5835 5837 5837 5836 5834 5834 5832 5832 5830 5826 5821 5817 5814 5811 5808 5804 5802 5798
5707 5707 5709 5711 5711 5711 5715 5723 5732 5736 5740 5744 5749 5755 5756 5760 5770 5777 5783 5786 5792 5795 5796 5800 5805 5810 5815 5815 5817 5821 5826 5826 5824 5824 5824 5823 5822 5821 5822 5819 5818 5814 5809 5806 5803 5800 5798 5795 5792
5695 5696 5696 5699 5699 5698 5701 5710 5720 5724 5728 5733 5738 5743 5747 5752 5762 5764 5770 5776 5778 5782 5788 5791 5795 5799 5806 5808 5808 5815 5816 5817 5817 5818 5817 5813 5810 5810 5810 5808 5808 5804 5801 5798 5794 5793 5791 5788 5785
5682 5680 5682 5682 5687 5687 5685 5696 5707 5713 5713 5719 5725 5731 5735 5740 5747 5755 5755 5761 5767 5770 5775 5779 5785 5790 5794 5799 5802 5805 5809 5810 5812 5811 5809 5806 5806 5804 5801 5799 5798 5795 5793 5791 5787 5785 5783 5780 5778
5669 5667 5666 5667 5671 5672 5672 5676 5690 5698 5699 5702 5709 5714 5720 5726 5732 5740 5746 5750 5753 5761 5766 5768 5771 5774 5781 5788 5792 5796 5799 5799 5799 5799 5799 5798 5797 5795 5793 5790 5789 5786 5785 5783 5780 5778 5775 5774 5771
5658 5654 5654 5653 5655 5653 5663 5654 5682 5681 5685 5692 5694 5698 5704 5709 5714 5721 5730 5739 5746 5751 5754 5759 5763 5767 5770 5774 5781 5785 5785 5788 5787 5785 5786 5787 5787 5785 5782 5782 5781 5779 5777 5775 5773 5771 5769 5767 5765
5645 5641 5641 5639 5640 5634 5648 5641 5658 5667 5672 5673 5673 5675 5682 5688 5695 5704 5714 5725 5733 5740 5745 5750 5754 5757 5760 5765 5770 5773 5774 5777 5775 5776 5776 5779 5779 5777 5776 5775 5772 5769 5769 5767 5765 5764 5762 5761 5759
5636 5629 5626 5627 5628 5624 5631 5628 5644 5646 5649 5647 5654 5659 5665 5673 5682 5692 5701 5708 5717 5723 5729 5735 5741 5746 5750 5753 5759 5763 5764 5766 5765 5767 5769 5769 5769 5768 5768 5766 5764 5762 5762 5760 5759 5758 5756 5753 5752
5631 5628 5623 5617 5617 5617 5618 5615 5629 5629 5625 5631 5634 5643 5651 5661 5669 5678 5687 5694 5704 5713 5720 5724 5731 5737 5742 5745 5749 5753 5752 5755 5756 5758 5759 5760 5760 5760 5759 5758 5756 5755 5755 5754 5753 5751 5749 5747 5744
5626 5624 5620 5613 5613 5609 5613 5615 5616 5615 5614 5615 5616 5622 5634 5644 5655 5665 5674 5683 5693 5702 5711 5717 5720 5726 5729 5734 5738 5741 5742 5743 5746 5749 5751 5750 5751 5752 5751 5750 5749 5749 5748 5748 5746 5745 5743 5741 5739
5618 5616 5614 5610 5605 5602 5607 5606 5606 5605 5604 5604 5605 5607 5618 5629 5639 5651 5661 5671 5679 5687 5696 5704 5711 5715 5719 5723 5726 5729 5731 5734 5738 5742 5743 5743 5743 5744 5743 5743 5742 5742 5742 5741 5740 5738 5737 5735 5734
5612 5607 5605 5603 5601 5595 5596 5596 5597 5598 5596 5595 5595 5598 5604 5615 5625 5636 5645 5655 5665 5675 5684 5691 5699 5705 5708 5711 5716 5720 5724 5728 5731 5733 5735 5736 5737 5737 5737 5736 5736 5737 5736 5734 5733 5732 5731 5729 5728
5602 5599 5596 5591 5592 5589 5587 5587 5589 5590 5588 5585 5587 5588 5590 5599 5607 5618 5629 5641 5653 5663 5675 5682 5684 5691 5696 5702 5707 5712 5718 5721 5724 5726 5727 5729 5729 5730 5729 5730 5731 5730 5728 5728 5727 5726 5725 5723 5722